Weather History for KBKS - December, 2012

Change the Weather History Date:

Wednesday, December 12, 2012

  Actual Average (KNQI) Record (KNQI)
Temperature  
Mean Temperature 54 °F -  
Max Temperature 69 °F 68 °F 84 °F (1996)
Min Temperature 38 °F 46 °F 30 °F (2012)
Degree Days  
Heating Degree Days 12    
Growing Degree Days 4 (Base 50)    
Moisture  
Dew Point 31 °F    
Average Humidity 49    
Maximum Humidity 77    
Minimum Humidity 17    
Precipitation  
Precipitation 0.00 in - - ()
Sea Level Pressure  
Sea Level Pressure 30.26 in    
Wind  
Wind Speed 3 mph (NNE)    
Max Wind Speed 9 mph    
Max Gust Speed -    
Visibility 10 miles    
Events      
Averages and records for this station are not official NWS values.
T = Trace of Precipitation, MM = Missing Value Source: NWS Daily Summary

Daily Weather History Graph

Daily Weather History Graph

Search for Another Location

Airport or City:

Trip Planner

Search our weather history database for the weather conditions in past years. The results will help you decide how hot, cold, wet, or windy it might be!

Date:

Astronomy

Dec. 12, 2012 Rise Set
Actual Time 7:12 AM CST 5:40 PM CST
Civil Twilight 6:47 AM CST 6:05 PM CST
Nautical Twilight 6:18 AM CST 6:34 PM CST
Astronomical Twilight 5:49 AM CST 7:03 PM CST
Moon 6:20 AM CST (12/12) 5:16 PM CST (12/12)
Length of Visible Light 11h 18m
Length of Day
10h 27m
Waning Crescent, 1% of the Moon is Illuminated
Dec 12
Waning Crescent
Dec 13
New
Dec 19
First Quarter
Dec 28
Full
Jan 4
Last Quarter

Hourly Weather History & Observations

Time (CST) Temp. Windchill Dew Point Humidity Pressure Visibility Wind Dir Wind Speed Gust Speed Precip Events Conditions
12:15 AM 47.1 °F - 30.9 °F 53% 30.23 in 10.0 mi Calm Calm - N/A   Clear
12:35 AM 45.5 °F 43.2 °F 32.0 °F 59% 30.24 in 10.0 mi WSW 4.6 mph - N/A   Clear
12:55 AM 45.0 °F - 32.0 °F 60% 30.24 in 10.0 mi Calm Calm - N/A   Clear
1:15 AM 46.4 °F - 32.4 °F 58% 30.24 in 10.0 mi Calm Calm - N/A   Mostly Cloudy
1:35 AM 46.6 °F - 32.5 °F 58% 30.24 in 10.0 mi Calm Calm - N/A   Overcast
1:55 AM 47.5 °F - 34.9 °F 62% 30.24 in 10.0 mi Calm Calm - N/A   Overcast
2:15 AM 47.3 °F - 35.1 °F 62% 30.23 in 10.0 mi NNW 3.5 mph - N/A   Overcast
2:35 AM 46.8 °F - 32.4 °F 57% 30.22 in 10.0 mi NNW 3.5 mph - N/A   Scattered Clouds
2:55 AM 46.4 °F 45.2 °F 32.4 °F 58% 30.23 in 10.0 mi NW 3.5 mph - N/A   Clear
3:15 AM 45.7 °F 43.4 °F 31.8 °F 58% 30.22 in 10.0 mi NNW 4.6 mph - N/A   Clear
3:35 AM 44.6 °F 42.2 °F 30.9 °F 59% 30.22 in 10.0 mi NW 4.6 mph - N/A   Clear
3:55 AM 44.2 °F - 30.2 °F 58% 30.23 in 10.0 mi Calm Calm - N/A   Clear
4:15 AM 42.6 °F - 30.6 °F 62% 30.23 in 10.0 mi Calm Calm - N/A   Clear
4:35 AM 42.1 °F 40.2 °F 30.6 °F 64% 30.24 in 10.0 mi West 3.5 mph - N/A   Clear
4:55 AM 41.2 °F 39.2 °F 30.2 °F 65% 30.23 in 10.0 mi West 3.5 mph - N/A   Clear
5:15 AM 40.3 °F 38.2 °F 30.2 °F 67% 30.24 in 10.0 mi West 3.5 mph - N/A   Clear
5:35 AM 39.6 °F 37.4 °F 30.2 °F 69% 30.24 in 10.0 mi West 3.5 mph - N/A   Clear
5:55 AM 38.8 °F - 30.2 °F 71% 30.25 in 10.0 mi Calm Calm - N/A   Clear
6:15 AM 39.2 °F 37.0 °F 29.7 °F 69% 30.25 in 10.0 mi NW 3.5 mph - N/A   Clear
6:35 AM 39.2 °F 35.9 °F 29.5 °F 68% 30.26 in 10.0 mi NNW 4.6 mph - N/A   Clear
6:55 AM 39.2 °F 35.9 °F 29.7 °F 69% 30.26 in 10.0 mi NNW 4.6 mph - N/A   Clear
7:15 AM 39.6 °F 35.4 °F 29.1 °F 66% 30.27 in 10.0 mi NW 5.8 mph - N/A   Clear
7:35 AM 39.4 °F 34.5 °F 29.1 °F 67% 30.28 in 10.0 mi NNW 6.9 mph - N/A   Clear
7:55 AM 39.9 °F 37.8 °F 29.3 °F 66% 30.29 in 10.0 mi NW 3.5 mph - N/A   Clear
8:15 AM 42.4 °F 40.7 °F 30.0 °F 61% 30.29 in 10.0 mi NNW 3.5 mph - N/A   Clear
8:35 AM 46.2 °F 45.0 °F 30.9 °F 55% 30.30 in 10.0 mi North 3.5 mph - N/A   Clear
8:55 AM 49.1 °F - 30.0 °F 48% 30.32 in 10.0 mi North 4.6 mph - N/A   Clear
9:15 AM 52.0 °F - 29.7 °F 42% 30.32 in 10.0 mi North 6.9 mph - N/A   Clear
9:35 AM 54.1 °F - 28.4 °F 37% 30.32 in 10.0 mi NNE 6.9 mph - N/A   Clear
9:55 AM 55.4 °F - 27.3 °F 34% 30.33 in 10.0 mi North 5.8 mph - N/A   Clear
10:15 AM 57.2 °F - 27.5 °F 32% 30.33 in 10.0 mi North 5.8 mph - N/A   Clear
10:35 AM 58.5 °F - 25.7 °F 29% 30.33 in 10.0 mi North 5.8 mph - N/A   Clear
10:55 AM 59.7 °F - 24.8 °F 26% 30.32 in 10.0 mi North 4.6 mph - N/A   Clear
11:15 AM 60.4 °F - 25.5 °F 26% 30.32 in 10.0 mi North 4.6 mph - N/A   Clear
11:35 AM 61.5 °F - 27.9 °F 28% 30.32 in 10.0 mi Calm Calm - N/A   Clear
11:55 AM 62.6 °F - 28.2 °F 27% 30.31 in 10.0 mi North 4.6 mph - N/A   Clear
12:15 PM 63.9 °F - 27.5 °F 25% 30.30 in 10.0 mi NE 5.8 mph - N/A   Clear
12:35 PM 64.8 °F - 26.8 °F 24% 30.29 in 10.0 mi NE 4.6 mph - N/A   Clear
12:55 PM 65.5 °F - 26.6 °F 23% 30.27 in 10.0 mi ENE 5.8 mph - N/A   Clear
1:15 PM 66.2 °F - 26.2 °F 22% 30.26 in 10.0 mi East 5.8 mph - N/A   Clear
1:35 PM 67.3 °F - 25.5 °F 21% 30.25 in 10.0 mi Calm Calm - N/A   Clear
2:15 PM 67.8 °F - 24.3 °F 19% 30.23 in 10.0 mi East 6.9 mph - N/A   Clear
2:35 PM 68.7 °F - 24.3 °F 19% 30.22 in 10.0 mi East 4.6 mph - N/A   Clear
2:55 PM 68.9 °F - 24.1 °F 18% 30.22 in 10.0 mi NE 4.6 mph - N/A   Clear
3:15 PM 69.3 °F - 23.5 °F 18% 30.22 in 10.0 mi East 4.6 mph - N/A   Clear
3:55 PM 69.6 °F - 22.3 °F 17% 30.21 in 10.0 mi ENE 8.1 mph - N/A   Clear
4:15 PM 69.8 °F - 22.5 °F 17% 30.21 in 10.0 mi ENE 8.1 mph - N/A   Clear
4:35 PM 69.3 °F - 23.0 °F 17% 30.21 in 10.0 mi East 4.6 mph - N/A   Clear
4:55 PM 68.4 °F - 23.7 °F 19% 30.21 in 10.0 mi East 9.2 mph - N/A   Clear
5:15 PM 66.6 °F - 27.5 °F 23% 30.21 in 10.0 mi East 8.1 mph - N/A   Clear
5:35 PM 64.6 °F - 29.5 °F 27% 30.22 in 10.0 mi East 9.2 mph - N/A   Clear
5:55 PM 61.9 °F - 30.6 °F 31% 30.22 in 10.0 mi East 5.8 mph - N/A   Clear
6:15 PM 59.5 °F - 31.8 °F 35% 30.23 in 10.0 mi East 5.8 mph - N/A   Clear
6:35 PM 57.6 °F - 31.6 °F 37% 30.23 in 10.0 mi East 5.8 mph - N/A   Clear
7:15 PM 54.9 °F - 35.4 °F 48% 30.24 in 10.0 mi East 3.5 mph - N/A   Clear
7:35 PM 53.6 °F - 36.5 °F 52% 30.25 in 10.0 mi East 4.6 mph - N/A   Clear
7:55 PM 52.7 °F - 37.8 °F 57% 30.25 in 10.0 mi East 3.5 mph - N/A   Clear
8:15 PM 52.5 °F - 38.1 °F 58% 30.26 in 10.0 mi East 4.6 mph - N/A   Clear
8:35 PM 51.8 °F - 38.3 °F 60% 30.26 in 10.0 mi East 3.5 mph - N/A   Clear
8:55 PM 51.1 °F - 38.8 °F 63% 30.26 in 10.0 mi East 3.5 mph - N/A   Clear
9:15 PM 50.9 °F - 39.6 °F 65% 30.26 in 10.0 mi East 4.6 mph - N/A   Clear
9:35 PM 50.9 °F - 41.0 °F 69% 30.26 in 10.0 mi ENE 3.5 mph - N/A   Clear
9:55 PM 50.7 °F - 41.5 °F 71% 30.26 in 10.0 mi Calm Calm - N/A   Clear
10:15 PM 49.3 °F - 39.6 °F 69% 30.26 in 10.0 mi Calm Calm - N/A   Clear
10:35 PM 48.7 °F - 40.1 °F 72% 30.26 in 10.0 mi Calm Calm - N/A   Clear
10:55 PM 48.6 °F - 40.3 °F 73% 30.26 in 10.0 mi Calm Calm - N/A   Clear
11:15 PM 48.4 °F - 41.0 °F 76% 30.26 in 10.0 mi Calm Calm - N/A   Clear
11:35 PM 48.9 °F - 42.1 °F 77% 30.26 in 10.0 mi NNE 3.5 mph - N/A   Clear
11:55 PM 49.3 °F - 42.1 °F 76% 30.25 in 10.0 mi NNE 3.5 mph - N/A   Clear